Location: Newark
(13.4819°N, 12.8431°E)
Time: 01:41:56
(UTC+00:00)

Hubble Space Telescope - Visible Passes

Search period start: 17 October 2019 00:00
Search period end: 27 October 2019 00:00
Orbit: 536 x 540 km, 28.5° (Epoch: 16 October)

Date Brightness Start Highest point End Pass type
(mag) Time Alt. Az. Time Alt. Az. Time Alt. Az.
20 Oct 3.7 04:37:47 10° S 04:39:13 11° SSE 04:40:38 10° SE visible
21 Oct 3.4 04:26:03 10° S 04:28:38 16° SSE 04:31:13 10° ESE visible
22 Oct 3.0 04:14:48 10° SSW 04:18:02 22° SSE 04:21:16 10° E visible
23 Oct 2.4 04:03:48 10° SSW 04:07:26 30° SSE 04:11:06 10° E visible
24 Oct 1.8 03:53:40 14° SW 03:56:51 42° SSE 04:00:46 10° E visible
25 Oct 1.1 03:44:28 30° SW 03:46:16 60° SSE 03:50:20 10° ENE visible
26 Oct 0.6 03:35:10 67° SW 03:35:42 85° SSE 03:39:49 10° ENE visible
